Regional Weather Roundup
Issued by NWS

Home | Current Version | Previous Version | Text Only | Print | Product List | Glossary Off
Versions: 1 2 3 4 5 6 7 8 9 10 11 12 13 14 15 16 17 18 19 20 21 22 23 24 25 26 27 28 29 30 31 32 33 34 35 36 37 38 39 40 41 42 43 44 45 46 47 48 49 50

000
ASUS43 KMPX 290201
RWRMN
WEATHER ROUNDUP FOR MINNESOTA
NATIONAL WEATHER SERVICE TWIN CITIES/CHANHASSEN MN
900 PM CDT WED SEP 28 2016


NOTE: "FAIR" INDICATES FEW OR NO CLOUDS BELOW 12,000 FEET WITH NO
SIGNIFICANT WEATHER AND/OR OBSTRUCTIONS TO VISIBILITY. N/A MEANS
CURRENT SKY AND/OR WEATHER CONDITIONS ARE NOT AVAILABLE.

MNZ060>063-068>070-290300-
   Twin Cities Metro

CITY           SKY/WX    TMP DP  RH WIND       PRES   REMARKS
TWIN CITIES    PTCLDY    56  48  74 N10       30.33R
ST PAUL        CLEAR     57  48  72 N7        30.34R
CRYSTAL        CLEAR     56  47  71 N8        30.33R
LAKEVILLE      CLEAR     54  48  82 N6        30.32S
EDEN PRAIRIE   CLEAR     56  48  74 N7        30.32R
LAKEVILLE      CLEAR     54  48  82 N6        30.32S
SOUTH ST PAUL  CLEAR     57  48  73 N7        30.33R
LAKE ELMO      FAIR      54  50  87 N5        30.34R
$$
MNZ001>005-007-008-013>017-022>024-027-028-290300-
   Northwest Minnesota

CITY           SKY/WX    TMP DP  RH WIND       PRES   REMARKS
BEMIDJI        CLOUDY    53  47  81 N3        30.40R
HALLOCK        CLEAR     50  46  87 E3        30.39R FOG
ROSEAU         HAZE      52  46  82 CALM      30.41R VSB 1
WARROAD        CLOUDY    54  48  82 CALM      30.41R
THIEF RVR FALL CLOUDY    55  49  80 E3        30.41R
CROOKSTON      CLOUDY    55  50  82 SE3       30.40R
FOSSTON        CLOUDY    50  45  81 CALM      30.41R
DETROIT LAKES  MOCLDY    54  46  76 NE3       30.40R
MOORHEAD       CLEAR     54  46  76 NE7       30.39R
PARK RAPIDS    CLOUDY    57  43  59 NE3       30.39R
MAHNOMEN       MOCLDY    52  46  82 NE6       30.39R
$$
MNZ006-009>011-018-025>026-290300-
   North Central Minnesota

CITY           SKY/WX    TMP DP  RH WIND       PRES   REMARKS
BAUDETTE       CLOUDY    54  49  83 E3        30.41R
FLAG ISLAND    CLOUDY    57  50  77 CALM      30.40R
INTL FALLS     CLOUDY    55  48  77 N6        30.40R
WASKISH        CLOUDY    54  52  94 CALM      30.41R
BIG FORK       CLOUDY    54  50  87 CALM      30.40R
GRAND RAPIDS   CLOUDY    54  48  80 N3        30.40R
COOK           CLOUDY    54  50  87 CALM      30.39R
WALKER         CLOUDY    53  46  79 CALM      30.39R
$$
MNZ012-019>021-037-290300-
   Northeast Minnesota

CITY           SKY/WX    TMP DP  RH WIND       PRES   REMARKS
DULUTH         CLOUDY    54  50  86 NE3       30.37R
ELY            CLOUDY    54  48  82 CALM      30.39R
HIBBING        CLOUDY    53  49  86 CALM      30.38R
EVELETH        CLOUDY    55  49  81 CALM      30.39R
DULUTH HARBOR  CLOUDY    55  54  94 N6        30.38R
TWO HARBORS    CLOUDY    55  52  88 CALM      30.36R
SILVER BAY     CLOUDY    52  52 100 CALM      30.36R
GRAND MARAIS     N/A     55  53  93 CALM      30.37R
G MARAIS ARPRT CLOUDY    52  46  82 N6        30.39R
$$
MNZ029>031-032-039>041-046>048-054>057-064-290300-
   West Central Minnesota

CITY           SKY/WX    TMP DP  RH WIND       PRES   REMARKS
FERGUS FALLS   CLEAR     52  46  82 E5        30.39R
MORRIS         CLOUDY    57  48  72 E6        30.36R
ALEXANDRIA     CLOUDY    56  49  77 E9        30.38R
ELBOW LAKE     FAIR      54  47  76 NE6       30.36R
WADENA         CLOUDY    54  45  71 NE3       30.38R
GLENWOOD       CLOUDY    54  48  82 NE5       30.38R
BENSON         PTCLDY    54  45  71 CALM      30.37R
ORTONVILLE     CLEAR     52  45  76 CALM      30.36R
MADISON        CLEAR     54  46  76 E5        30.36R
WILLMAR        CLOUDY    52  46  82 CALM      30.37R
$$
MNZ033>034-036-042>043-049>051-058-059-290300-
   Central Minnesota

CITY           SKY/WX    TMP DP  RH WIND       PRES   REMARKS
ST CLOUD       CLOUDY    53  48  83 N3        30.36R
SAUK CENTRE    CLOUDY    55  46  72 NE3       30.38R
PAYNESVILLE    PTCLDY    53  47  80 N3        30.37R
AITKIN         CLOUDY    55  48  76 CALM      30.37R
PINE RIVER     CLOUDY    54  48  82 NE3       30.41R
BRAINERD       CLOUDY    54  49  83 CALM      30.38R
STAPLES        CLOUDY    54  45  71 CALM      30.38R
LONG PRAIRIE   CLOUDY    54  45  71 CALM      30.39R
LITTLE FALLS   CLOUDY    54  45  71 CALM      30.38R
LITCHFIELD     MOCLDY    55  48  76 CALM      30.36R
BUFFALO        CLOUDY    57  48  73 N5        30.36R
MAPLE LAKE     CLOUDY    57  51  81 N5        30.37R
HUTCHINSON     CLOUDY    58  51  77 N6        30.36R
$$
MNZ037-044-045-052-053-290300-
   East Central Minnesota

CITY           SKY/WX    TMP DP  RH WIND       PRES   REMARKS
PRINCETON      CLOUDY    57  50  77 CALM      30.36R
MORA           MOCLDY    54  46  76 CALM      30.38R
CAMBRIDGE      CLOUDY    57  46  67 N3        30.34R
MOOSE LAKE     CLOUDY    54  48  82 CALM      30.36R
HINCKLEY       CLOUDY    54  50  87 N5        30.36S
CLOQUET        CLOUDY    54  46  76 CALM      30.37R
MCGREGOR       CLOUDY    54  48  82 CALM      30.38R
$$
MNZ071>073-080-081-089-090-097-098-290300-
   Southwest Minnesota

CITY           SKY/WX    TMP DP  RH WIND       PRES   REMARKS
MONTEVIDEO     CLEAR     52  46  82 SE6       30.37R
GRANITE FALLS  CLEAR     54  47  77 NE6       30.37R
CANBY          CLEAR     52  47  81 CALM      30.37R
MARSHALL       CLOUDY    54  47  77 E8        30.35R
REDWOOD FALLS  CLOUDY    58  47  66 N5        30.35R
OLIVIA         CLOUDY    55  46  71 NE5       30.35R
PIPESTONE      CLEAR     52  45  76 NE3       30.34R
WINDOM         CLEAR     52  46  82 N5        30.34R
WORTHINGTON    CLOUDY    53  47  79 NE6       30.34R
JACKSON        CLEAR     50  45  81 N3        30.34R
TRACY          PTCLDY    55  49  80 E3        30.35R
$$
MNZ065>067-074>077-082>085-091>093-290300-
   South Central Minnesota

CITY           SKY/WX    TMP DP  RH WIND       PRES   REMARKS
MANKATO        CLEAR     53  48  83 N9        30.33R
ST JAMES       CLEAR     52  46  82 CALM      30.34R
FAIRMONT       CLEAR     51  47  86 N6        30.33R
GLENCOE        MOCLDY    58  52  81 N5        30.34R
FARIBAULT      MOCLDY    55  50  82 N6        30.32R
OWATONNA       CLOUDY    57  48  72 N9        30.31R
WASECA         CLOUDY    54  48  82 N7        30.33R
ALBERT LEA     CLEAR     55  50  82 N7        30.30R
$$
MNZ078>079-086>088-094>096-290300-
   Southeast Minnesota

CITY           SKY/WX    TMP DP  RH WIND       PRES   REMARKS
ROCHESTER      CLOUDY    57  51  80 N13       30.30R
RED WING       CLOUDY    57  50  77 N12G17    30.30R
DODGE CENTER   CLOUDY    55  48  76 N9        30.30R
WINONA         PTCLDY    59  52  77 N7        30.28R
AUSTIN         MOCLDY    55  50  82 N7        30.29R
PRESTON        CLOUDY    55  50  82 N9        30.28R
$$
ABBREVIATIONS USED IN REMARKS
   TC - TEMPERATURES IN CELSIUS
  WCI - WIND CHILL INDEX
   HX - HEAT INDEX
  VSB - VISIBILITY
$$




USA.gov is the U.S. government's official web portal to all federal, state and local government web resources and services.